OH5GWF-1 Weather Reports


Display with metric or nautical units.
time (UTC)temp
F
wind
direction
speed
MPH
gust
MPH
rain 1hr
in
rain 24hr
in
rain mn
in
humidity
%
barometer
mb
20260902113358 73 248 1.0 3.0 0.00 0.00 0.00 58 1007.1
20260902112654 73 248 2.0 3.0 0.00 0.00 0.00 61 1007.1
20260902112419 71 248 1.0 1.0 0.00 0.00 0.00 61 1007.2
20260902111952 71 248 2.0 5.0 0.00 0.00 0.00 62 1007.2
20260902111250 70 248 2.0 5.0 0.00 0.00 0.00 65 1007.2
20260902110548 69 248 2.0 5.0 0.00 0.00 0.00 68 1007.2
20260902110223 69 248 2.0 5.0 0.00 0.00 0.00 68 1007.2
20260902105857 69 248 2.0 5.0 0.00 0.00 0.00 68 1007.2
20260902105156 67 248 3.0 5.0 0.00 0.00 0.00 69 1007.2
20260902105121 67 248 2.0 5.0 0.00 0.00 0.00 70 1007.1
20260902104455 65 248 2.0 5.0 0.00 0.00 0.00 72 1007.2
20260902104018 64 248 2.0 7.0 0.00 0.00 0.00 75 1007.2
20260902103753 63 248 1.0 1.0 0.00 0.00 0.00 76 1007.2
20260902103049 63 248 1.0 2.0 0.00 0.00 0.00 76 1007.2
20260902102926 63 248 0.0 1.0 0.00 0.00 0.00 76 1007.2
20260902102347 63 248 2.0 5.0 0.00 0.00 0.00 76 1007.2
20260902101823 63 248 3.0 5.0 0.00 0.00 0.00 76 1007.2
20260902101658 63 248 2.0 8.0 0.00 0.00 0.00 76 1007.2
20260902100957 62 248 2.0 6.0 0.00 0.00 0.00 77 1007.2
20260902100817 62 248 2.0 3.0 0.00 0.00 0.00 77 1007.1
20260902100255 62 248 1.0 5.0 0.00 0.00 0.00 77 1007.1
20260902095553 62 248 2.0 5.0 0.00 0.00 0.00 76 1007.1
20260902094851 62 248 0.0 3.0 0.00 0.00 0.00 76 1007.1
20260902094515 63 248 2.0 5.0 0.00 0.00 0.00 76 1007.2
20260902094149 63 248 2.0 3.0 0.00 0.00 0.00 76 1007.1
20260902093446 63 248 2.0 6.0 0.00 0.00 0.00 76 1007.2
20260902093423 63 248 2.0 5.0 0.00 0.00 0.00 76 1007.1
20260902092756 64 248 5.0 6.0 0.00 0.00 0.00 76 1007.2
20260902092321 63 248 1.0 2.0 0.00 0.00 0.00 78 1007.1
20260902092054 62 248 1.0 1.0 0.00 0.00 0.00 77 1007.2
20260902091353 64 248 1.0 5.0 0.00 0.00 0.00 77 1007.1
20260902091218 63 248 1.0 3.0 0.00 0.00 0.00 78 1007.1
20260902090650 63 248 1.0 0.0 0.00 0.00 0.00 76 1007.1
20260902090127 64 248 2.0 3.0 0.00 0.00 0.00 77 1007.1
20260902085949 63 248 2.0 5.0 0.00 0.00 0.00 78 1007.1
20260902085248 63 248 5.0 6.0 0.00 0.00 0.00 77 1007.0
20260902085024 62 248 1.0 3.0 0.00 0.00 0.00 78 1007.0
20260902084546 63 248 1.0 2.0 0.00 0.00 0.00 78 1007.0
20260902083856 63 248 1.0 6.0 0.00 0.00 0.00 78 1007.0
20260902083153 63 248 2.0 2.0 0.00 0.00 0.00 77 1007.1
20260902082817 63 248 1.0 3.0 0.00 0.00 0.00 78 1007.2
20260902082450 64 248 2.0 3.0 0.00 0.00 0.00 79 1007.2
20260902081748 62 248 0.0 5.0 0.00 0.00 0.00 80 1007.2
20260902081726 62 248 1.0 0.0 0.00 0.00 0.00 79 1007.2
20260902081046 64 248 2.0 5.0 0.00 0.00 0.00 76 1007.1
20260902080621 64 248 2.0 3.0 0.00 0.00 0.00 79 1007.0
20260902080356 64 248 0.0 2.0 0.00 0.00 0.00 80 1007.0
20260902075653 63 248 1.0 3.0 0.00 0.00 0.00 80 1007.0
20260902075517 63 248 2.0 3.0 0.00 0.00 0.00 78 1007.0
20260902074950 65 248 2.0 5.0 0.00 0.00 0.00 79 1007.0
20260902074430 66 248 2.0 5.0 0.00 0.00 0.00 82 1006.9
20260902074248 66 248 0.0 5.0 0.00 0.00 0.00 82 1006.9
20260902073547 63 249 0.0 0.0 0.00 0.00 0.00 84 1006.8
20260902073324 62 249 0.0 0.0 0.00 0.00 0.00 85 1006.7
20260902072857 61 249 0.0 0.0 0.00 0.00 0.00 85 1006.8
20260902072155 59 249 0.0 0.0 0.00 0.00 0.00 85 1006.9
20260902071451 58 249 0.0 0.0 0.00 0.00 0.00 85 1006.8
20260902070750 56 249 0.0 0.0 0.00 0.00 0.00 85 1006.8
20260902070049 55 249 0.0 0.0 0.00 0.00 0.00 85 1006.7
20260902065348 55 249 0.0 0.0 0.00 0.00 0.00 85 1006.7
20260902064647 55 249 0.0 0.0 0.00 0.00 0.00 86 1006.8
20260902063946 54 249 0.0 0.0 0.00 0.00 0.00 86 1006.6
20260902063256 54 249 0.0 0.0 0.00 0.00 0.00 86 1006.5
20260902062554 54 249 0.0 0.0 0.00 0.00 0.00 86 1006.5
20260902061852 55 249 0.0 0.0 0.00 0.00 0.00 86 1006.5
20260902061150 55 249 0.0 0.0 0.00 0.00 0.00 86 1006.4
20260902060447 54 249 0.0 0.0 0.00 0.00 0.00 86 1006.5
20260902055746 54 249 0.0 0.0 0.00 0.00 0.00 86 1006.4
20260902055108 55 249 0.0 0.0 0.00 0.00 0.00 86 1006.4
20260902054353 54 249 0.0 0.0 0.00 0.00 0.00 86 1006.4
20260902053652 54 249 0.0 0.0 0.00 0.00 0.00 86 1006.3
20260902052950 54 249 0.0 0.0 0.00 0.00 0.00 86 1006.3
20260902052250 54 249 0.0 0.0 0.00 0.00 0.00 86 1006.3
20260902051547 54 249 0.0 0.0 0.00 0.00 0.00 86 1006.2
20260902050856 54 248 1.0 2.0 0.00 0.00 0.00 86 1006.3
20260902050153 54 248 1.0 3.0 0.00 0.00 0.00 86 1006.2
20260902045450 54 248 1.0 2.0 0.00 0.00 0.00 86 1006.2
20260902044748 54 248 1.0 2.0 0.00 0.00 0.00 86 1006.4
20260902044046 54 248 0.0 2.0 0.00 0.00 0.00 86 1006.3
20260902043356 54 248 1.0 2.0 0.00 0.00 0.00 86 1006.2
20260902042655 54 248 1.0 2.0 0.00 0.00 0.00 86 1006.3
20260902041952 54 248 2.0 5.0 0.00 0.00 0.00 86 1006.2
20260902041250 54 248 2.0 3.0 0.00 0.00 0.00 86 1006.2
20260902040548 54 248 1.0 2.0 0.00 0.00 0.00 86 1006.1
20260902035857 54 248 1.0 3.0 0.00 0.00 0.00 86 1006.2
20260902035155 54 248 1.0 3.0 0.00 0.00 0.00 86 1006.1
20260902034453 53 248 0.0 2.0 0.00 0.00 0.00 86 1006.1
20260902033753 53 248 0.0 0.0 0.00 0.00 0.00 86 1006.0
20260902033050 52 248 0.0 1.0 0.00 0.00 0.00 86 1006.0
20260902032348 52 248 0.0 0.0 0.00 0.00 0.00 86 1006.0
20260902031647 51 248 0.0 0.0 0.00 0.00 0.00 85 1006.0
20260902030958 51 248 0.0 0.0 0.00 0.00 0.00 85 1006.0
20260902030256 51 248 0.0 0.0 0.00 0.00 0.00 85 1006.1
20260902025554 52 248 0.0 0.0 0.00 0.00 0.00 85 1006.2
20260902024852 52 248 0.0 0.0 0.00 0.00 0.00 86 1006.1
20260902024150 52 248 0.0 0.0 0.00 0.00 0.00 86 1006.2
20260902023448 53 248 0.0 0.0 0.00 0.00 0.00 86 1006.1
20260902022757 53 248 0.0 0.0 0.00 0.00 0.00 86 1006.2
20260902022054 53 248 0.0 0.0 0.00 0.00 0.00 86 1006.2
20260902021353 53 248 0.0 0.0 0.00 0.00 0.00 85 1006.2
20260902020651 53 248 0.0 0.0 0.00 0.00 0.00 85 1006.1
20260902015949 54 248 0.0 0.0 0.00 0.00 0.00 85 1006.1
20260902015248 54 248 0.0 0.0 0.00 0.00 0.00 85 1006.1
20260902014547 54 248 0.0 0.0 0.00 0.00 0.00 85 1006.1
20260902013857 54 248 0.0 0.0 0.00 0.00 0.00 85 1006.1
20260902013155 54 248 0.0 0.0 0.00 0.00 0.00 85 1006.1
20260902012454 54 248 0.0 0.0 0.00 0.00 0.00 85 1006.1
20260902011750 54 248 0.0 0.0 0.00 0.00 0.00 85 1006.0
20260902011049 54 248 0.0 0.0 0.00 0.00 0.00 85 1006.2
20260902010348 54 248 1.0 1.0 0.00 0.00 0.00 85 1006.3
20260902005647 55 248 0.0 0.0 0.00 0.00 0.00 85 1006.3
20260902004957 55 248 0.0 0.0 0.00 0.00 0.00 85 1006.4
20260902004253 55 248 0.0 0.0 0.00 0.00 0.00 85 1006.4
20260902003552 55 248 0.0 0.0 0.00 0.00 0.00 85 1006.3
20260902002849 55 248 0.0 1.0 0.00 0.00 0.00 85 1006.3
20260902002148 55 248 0.0 1.0 0.00 0.00 0.00 85 1006.3
20260902001446 55 248 0.0 0.0 0.00 0.00 0.00 85 1006.4
20260902000755 55 248 0.0 0.0 0.00 0.00 0.00 85 1006.3
20260902000053 55 248 0.0 0.0 0.00 0.00 0.00 85 1006.3
20260901235351 55 248 0.0 0.0 0.00 0.00 0.00 85 1006.3
20260901234648 55 248 0.0 0.0 0.00 0.00 0.00 85 1006.3
20260901233947 55 248 0.0 0.0 0.00 0.00 0.00 85 1006.3
20260901233246 55 248 0.0 0.0 0.00 0.00 0.00 85 1006.4
20260901232557 55 248 0.0 0.0 0.00 0.00 0.00 85 1006.4
20260901231855 55 248 0.0 0.0 0.00 0.00 0.00 85 1006.4
20260901231152 55 248 0.0 0.0 0.00 0.00 0.00 85 1006.4
20260901230450 55 248 0.0 0.0 0.00 0.00 0.00 85 1006.4
20260901225746 55 248 0.0 0.0 0.00 0.00 0.00 85 1006.4
20260901225056 55 248 0.0 0.0 0.00 0.00 0.00 85 1006.5
20260901224354 55 248 0.0 0.0 0.00 0.00 0.00 85 1006.6
20260901223652 55 248 0.0 0.0 0.00 0.00 0.00 85 1006.7
20260901222950 55 248 0.0 0.0 0.00 0.00 0.00 85 1006.9
20260901222247 55 248 0.0 0.0 0.00 0.00 0.00 84 1006.8
20260901221546 54 248 0.0 0.0 0.00 0.00 0.00 84 1006.9
20260901220857 54 248 0.0 0.0 0.00 0.00 0.00 84 1006.8
20260901220155 54 248 0.0 0.0 0.00 0.00 0.00 84 1006.8
20260901215454 54 248 0.0 0.0 0.00 0.00 0.00 84 1006.8
20260901214753 54 248 0.0 0.0 0.00 0.00 0.00 84 1006.8
20260901214051 54 248 0.0 0.0 0.00 0.00 0.00 84 1006.8
20260901213349 54 248 0.0 0.0 0.00 0.00 0.00 84 1006.7
20260901212646 55 248 0.0 0.0 0.00 0.00 0.00 84 1006.7
20260901211957 55 248 0.0 0.0 0.00 0.00 0.00 84 1006.7
20260901211254 55 248 0.0 0.0 0.00 0.00 0.00 84 1006.6
20260901210551 55 248 0.0 0.0 0.00 0.00 0.00 84 1006.6
20260901205850 55 248 0.0 0.0 0.00 0.00 0.00 84 1006.7
20260901205147 55 248 0.0 0.0 0.00 0.00 0.00 84 1007.1
20260901204446 55 248 0.0 0.0 0.00 0.00 0.00 84 1007.1
20260901203757 55 248 0.0 0.0 0.00 0.00 0.00 84 1007.0
20260901203054 56 248 0.0 1.0 0.00 0.00 0.00 84 1007.0
20260901202352 56 248 0.0 0.0 0.00 0.00 0.00 84 1007.1
20260901201649 56 248 0.0 0.0 0.00 0.00 0.00 84 1007.2
20260901200947 56 248 0.0 1.0 0.00 0.00 0.00 84 1007.2
20260901200257 56 248 0.0 1.0 0.00 0.00 0.00 84 1007.1
20260901195554 56 248 0.0 1.0 0.00 0.00 0.00 84 1007.0
20260901194852 56 248 0.0 0.0 0.00 0.00 0.00 83 1007.0
20260901194148 56 248 0.0 1.0 0.00 0.00 0.00 83 1007.0
20260901193446 56 248 0.0 0.0 0.00 0.00 0.00 83 1006.9
20260901192757 56 248 0.0 0.0 0.00 0.00 0.00 83 1006.8
20260901192055 56 248 0.0 0.0 0.00 0.00 0.00 84 1006.8
20260901191353 57 248 0.0 0.0 0.00 0.00 0.00 84 1006.7
20260901190650 57 248 0.0 0.0 0.00 0.00 0.00 84 1006.9
20260901185947 57 248 0.0 0.0 0.00 0.00 0.00 84 1007.0
20260901185258 57 248 0.0 0.0 0.00 0.00 0.00 84 1007.1
20260901184554 57 248 0.0 1.0 0.00 0.00 0.00 84 1007.1
20260901183852 57 248 0.0 1.0 0.00 0.00 0.00 83 1007.0
20260901183150 57 248 1.0 3.0 0.00 0.00 0.00 84 1007.2
20260901182449 57 248 0.0 1.0 0.00 0.00 0.00 84 1007.2
20260901181747 57 248 1.0 1.0 0.00 0.00 0.00 84 1007.2
20260901181056 57 248 0.0 0.0 0.00 0.00 0.00 84 1007.1
20260901180354 57 248 0.0 1.0 0.00 0.00 0.00 84 1007.2
20260901175651 57 248 0.0 1.0 0.00 0.00 0.00 84 1007.2
20260901174948 56 248 0.0 1.0 0.00 0.00 0.00 84 1007.2
20260901174246 56 248 0.0 1.0 0.00 0.00 0.00 84 1007.1
20260901173555 57 248 0.0 0.0 0.00 0.00 0.00 84 1007.2
20260901172853 57 248 0.0 0.0 0.00 0.00 0.00 84 1007.2
20260901172151 58 248 0.0 0.0 0.00 0.00 0.00 84 1007.2
20260901171447 58 248 0.0 0.0 0.00 0.00 0.00 83 1007.1
20260901170757 58 248 0.0 1.0 0.00 0.00 0.00 83 1007.2
20260901170053 58 248 0.0 0.0 0.00 0.00 0.00 83 1007.2
20260901165351 58 251 0.0 0.0 0.00 0.00 0.00 83 1007.3
20260901164650 59 248 0.0 0.0 0.00 0.00 0.00 83 1007.3
20260901163947 59 248 0.0 0.0 0.00 0.00 0.00 83 1007.2
20260901163257 60 248 0.0 0.0 0.00 0.00 0.00 83 1007.1
20260901162554 61 248 0.0 0.0 0.00 0.00 0.00 83 1007.3
20260901161852 62 248 0.0 0.0 0.00 0.00 0.00 83 1007.2
20260901161151 62 248 0.0 0.0 0.00 0.00 0.00 83 1007.3
20260901160500 63 248 0.0 0.0 0.00 0.00 0.00 83 1007.3
20260901155746 64 248 0.0 0.0 0.00 0.00 0.00 82 1007.3
20260901155055 64 248 0.0 0.0 0.00 0.00 0.00 82 1007.3
20260901154353 65 248 0.0 0.0 0.00 0.00 0.00 82 1007.4
20260901153651 66 248 0.0 2.0 0.00 0.00 0.00 81 1007.4
20260901152948 66 248 0.0 0.0 0.00 0.00 0.00 81 1007.5
20260901152258 66 248 0.0 0.0 0.00 0.00 0.00 81 1007.5
20260901151555 66 248 1.0 2.0 0.00 0.00 0.00 81 1007.6
20260901150852 66 248 0.0 0.0 0.00 0.00 0.00 81 1007.4
20260901150151 66 248 0.0 0.0 0.00 0.00 0.00 81 1007.5
20260901145448 66 248 0.0 0.0 0.00 0.00 0.00 81 1007.4
20260901144746 67 248 0.0 0.0 0.00 0.00 0.00 80 1007.5
20260901144056 67 248 0.0 0.0 0.00 0.00 0.00 80 1007.5
20260901143352 67 248 0.0 0.0 0.00 0.00 0.00 79 1007.5
20260901142650 68 248 1.0 1.0 0.00 0.00 0.00 79 1007.4
20260901141947 67 248 1.0 3.0 0.00 0.00 0.00 80 1007.5
20260901141256 67 248 1.0 2.0 0.00 0.00 0.00 81 1007.6
20260901140554 66 248 0.0 1.0 0.00 0.00 0.00 81 1007.6
20260901135850 67 248 0.0 1.0 0.00 0.00 0.00 80 1007.5
20260901135148 67 248 1.0 3.0 0.00 0.00 0.00 80 1007.7
20260901134457 67 248 0.0 2.0 0.00 0.00 0.00 80 1007.7
20260901133755 67 248 0.0 2.0 0.00 0.00 0.00 80 1007.8
20260901133054 68 248 0.0 0.0 0.00 0.00 0.00 79 1007.7
20260901132352 69 248 0.0 0.0 0.00 0.00 0.00 77 1007.8
20260901131649 71 248 0.0 0.0 0.00 0.00 0.00 77 1007.7
20260901130947 70 248 0.0 1.0 0.00 0.00 0.00 79 1007.8
20260901130257 69 248 2.0 5.0 0.00 0.00 0.00 80 1007.9
20260901125555 67 248 0.0 0.0 0.00 0.00 0.00 80 1007.9
20260901124852 67 248 0.0 1.0 0.00 0.00 0.00 81 1008.0
20260901124150 66 248 0.0 1.0 0.00 0.00 0.00 81 1008.0
20260901123449 66 248 0.0 0.0 0.00 0.00 0.00 82 1008.1
20260901122748 66 248 0.0 1.0 0.00 0.00 0.00 81 1008.0
20260901122047 65 248 0.0 0.0 0.00 0.00 0.00 81 1008.1
20260901121356 66 248 1.0 2.0 0.00 0.06 0.00 81 1008.1
20260901120654 66 248 0.0 1.0 0.00 0.06 0.00 80 1008.1
20260901115951 67 248 1.0 3.0 0.00 0.08 0.00 80 1008.0
20260901115616 67 248 0.0 1.0 0.00 0.10 0.00 80 1008.0
20260901115248 67 248 1.0 1.0 0.00 0.10 0.00 80 1007.9
20260901114557 67 248 0.0 0.0 0.00 0.12 0.00 80 1008.0
20260901114522 67 248 1.0 1.0 0.00 0.12 0.00 80 1008.0
20260901113855 67 248 2.0 3.0 0.00 0.12 0.00 80 1008.0
20260901113419 66 248 1.0 5.0 0.00 0.12 0.00 80 1008.0